Location: Cremona
(45.1170°N, 10.0330°E)
Time: 21:27:24
(UTC+01:00)

ISS - Pass Details

Date: 22 January 2019
Orbit: 403 x 411 km, 51.6° (Epoch: 23 February)

Event Time Altitude Azimuth Distance (km) Brightness Sun altitude
Rises 19:20:30 0° 224° (SW) 2,324 0.8 -22.3°
Reaches altitude 10° 19:22:36 10° 219° (SW) 1,468 -0.4 -22.6°
Enters shadow 19:24:22 27° 203° (SSW) 817 -2.1 -23.0°
